Location: Warszawa
(52.2500°N, 21.0000°E)
Time: 05:30:14
(UTC+01:00)

SR - Visible Passes

Search period start: 30 January 2023 00:00
Search period end: 09 February 2023 00:00
Orbit: 581 x 870 km, 66.7° (Epoch: 29 January)

Date Brightness Start Highest point End Pass type
(mag) Time Alt. Az. Time Alt. Az. Time Alt. Az.
30 Jan ? 17:21:23 10° W 17:25:33 26° NNW 17:29:28 10° NNE visible
30 Jan ? 19:06:39 10° NW 19:09:03 14° N 19:09:41 13° N visible
31 Jan ? 18:15:02 10° NW 18:17:58 16° NNW 18:20:35 11° NNE visible
31 Jan ? 19:59:22 10° NNW 19:59:56 11° NNW 19:59:56 11° NNW visible
01 Feb ? 17:23:22 10° WNW 17:26:58 20° NNW 17:30:23 10° NNE visible
01 Feb ? 19:08:28 10° NNW 19:10:40 13° N 19:10:50 13° N visible
02 Feb ? 18:17:06 10° NW 18:19:32 14° N 18:21:43 10° NNE visible
02 Feb ? 20:00:33 10° NNW 20:01:04 12° NNW 20:01:04 12° NNW visible
03 Feb ? 17:25:28 10° WNW 17:28:27 16° NNW 17:31:20 10° NNE visible
03 Feb ? 19:09:57 10° NNW 19:11:58 14° N 19:11:58 14° N visible
04 Feb ? 18:18:59 10° NNW 18:21:08 13° N 18:22:51 11° NNE visible
04 Feb ? 20:01:34 10° NNW 20:02:12 13° NNW 20:02:12 13° NNW visible
05 Feb ? 17:27:33 10° NW 17:30:01 14° N 17:32:24 10° NNE visible
05 Feb ? 19:11:09 10° NNW 19:13:06 15° N 19:13:06 15° N visible
06 Feb ? 18:20:30 10° NNW 18:22:44 13° N 18:24:01 12° NNE visible
06 Feb ? 20:02:30 10° NNW 20:03:22 14° NNW 20:03:22 14° NNW visible
07 Feb ? 17:29:27 10° NNW 17:31:36 13° N 17:33:40 10° NNE visible
07 Feb ? 19:12:09 10° NNW 19:14:17 17° N 19:14:17 17° N visible
08 Feb ? 18:21:43 10° NNW 18:24:18 15° NNE 18:25:13 14° NNE visible
08 Feb ? 20:03:26 10° NNW 20:04:34 17° NNW 20:04:34 17° NNW visible
